Location: Risskov
(56.1972°N, 10.2480°E)
Time: 13:26:27
(UTC+00:00)

In-Cosmos 22 Rocket - Pass Details

Date: 05 July 2020
Orbit: 791 x 887 km, 81.2° (Epoch: 06 August)

Event Time Altitude Azimuth Distance (km) Brightness Sun altitude
Exits shadow 21:29:50 - 173° (S) 2,555 6.1 -7.5°
Reaches altitude 10° 21:30:21 10° 171° (S) 2,356 5.9 -7.6°
Maximum altitude 21:35:28 52° 96° (E) 980 4.4 -7.9°
Drops below altitude 10° 21:40:39 10° 22° (NNE) 2,382 7.2 -8.2°
Sets 21:43:06 0° 17° (NNE) 3,325 8.2 -8.3°
